STARLINK-33833, 63498

Orbit data source: Space-Track

STARLINK-33833, 63498 is a payload satellite owned by SpaceX/Seattle (US) in LEO that was launched on Mon, 07 Apr 2025 UTC via an FALCON 9 launch vehicle from the Air Force Western Test Range (AFWTR). Payload-class satellites include a variety of spacecraft equipped with specific instruments for various scientific and technological missions. These include communications satellites like Starlink; space stations such as the ISS; scientific satellites like the Hubble; Earth observation satellites from companies like Planet Labs, Umbra, and HawkEye 360; GPS; miniature CubeSats for education and research; and military/defense satellites.

Loading next visibility...
Identifier
63498, 2025-071F
Orbit
LEO
Country
Flag of USUS
Related business
Manufacturer
SpaceX/Seattle
Mission
Operational Commercial Communications
Bus & Motor
STARLINK V2MO, Unknown motor
Mass
575 kg wet, ~530 kg dry
Launch date (UTC)
2025-04-07 (10 months ago)
Launch vehicle
FALCON 9
Launch site
Air Force Western Test Range (AFWTR)
Object type
Payload
Rocket body
Debris
Shape & HBR
Box + 2 Pan, 17.7 m
Radar Cross Section
36.964 m², Large (>1 m²)

Expand to show TLE details & history
Last TLE update: 14 hours ago

TLE from 14 hours ago
0 STARLINK-33833
1 63498U 25071F   26037.11280906  .00038116  00000-0  12932-2 0  9998
2 63498  53.1564 286.7172 0001307  70.3094 289.8047 15.30182406 47934
Epoch: 2026-02-06T02:42Z
TLE epoch observation values (Epoch: 2026-02-06T02:42:26.702Z)
Latitude
-0.00009°
Longitude
109.85052°
Altitude
475.864 km
Speed
7.629 km/s
True Right ascension
19h 06m 52s
True Declination
0° 00' 00"
Sunlit
Object was in daylight at epoch
Visualization orbit readout
Latitude
Unknown
Longitude
Unknown
Altitude
Unknown
Speed
Unknown
Apparent Right ascension
Unknown
Apparent Declination
Unknown
Sunlit
N/A
Visualization observer readout
Local Sidereal Time
18:34:19
Azimuth
Unknown
Elevation
Unknown
Doppler factor
Unknown
Orbital elements
Apogee altitude
476.42 km
Perigee altitude
474.629 km
Semi-major axis
6,853.662 km
Eccentricity
0.00013
Inclination
53.1564°
RAAN
286.7172°
Arg. of periapsis
70.3094°
True anomaly
289.79061°
Mean anomaly
289.8047°
Eccentric anomaly
289.79765°
Mean motion
3.82524 °/min
Orbital period
94.11 mins
BSTAR
0.0012932
Loading maneuver chart data...
Computing Atmospheric mass density...
Loading historical data...
Loading historical data...
Loading historical data...
Loading historical data...
Loading historical data...
Loading historical data...
Loading historical data...

Documentation

Showing up to 5 results
|